Flag Weather past 2 weeks in Bologna, Italy

Now
45 °F

Fog.


Feels Like: 45 °F
Forecast: 46 / 54 °F
Wind: 2 mph from North

Location: Bologna / Borgo Panigale

Current Time: Nov 27, 2014 at 10:55:34 PM

Latest Report: Nov 27, 2014 at 10:20 PM


Visibility: 2 mi

Pressure: 29.98 "Hg

Humidity: 100%

Dew point: 45 °F

Location of BolognaLocation

Historic Weather in Bologna — Graph

°F

Bologna temperature yesterday

Maximum temperature yesterday: 50 °F (at 12:20 AM)
Minimum temperature yesterday: 45 °F (at 11:50 PM)
Average temperature yesterday: 47 °F

Past Weeks' High & Low Weather Summary

 TemperatureHumidityPressure
High64 °F (Nov 16, 9:50 AM)100% (Nov 12, 9:20 PM)30.36 "Hg (Nov 12, 9:20 PM)
Low39 °F (Nov 21, 5:50 AM)52% (Nov 16, 3:50 AM)29.56 "Hg (Nov 15, 6:20 PM)
Average51 °F90%30.00 "Hg
* Reported Nov 12 9:20 PM — Nov 27 9:50 PM, Bologna, Weather by CustomWeather, © 2014

Note: Actual official high and low records may vary slightly from our data, if they occured in-between our weather recording intervals... More about our weather records

Advertising

Bologna weather history for previous 24 hours

 ConditionsComfort  
Time TempWeatherWind HumidityBarometerVisibility
9:50 PM
Nov 27
45 °FFog.2 mph100%29.98 "Hg1 mi
9:20 PM45 °FFog.2 mph100%29.98 "Hg1 mi
8:50 PM45 °FFog.2 mph100%29.98 "Hg1 mi
8:20 PM45 °FFog.3 mph100%29.98 "Hg1 mi
7:50 PM45 °FFog.3 mph100%29.98 "Hg1 mi
7:20 PM45 °FFog.2 mph100%29.98 "Hg1 mi
6:50 PM45 °FFog.2 mph100%29.95 "Hg1 mi
6:20 PM45 °FFog.2 mph100%29.95 "Hg1 mi
5:50 PM45 °FFog.2 mph100%29.95 "Hg1 mi
5:20 PM45 °FFog.2 mph100%29.95 "Hg1 mi
4:50 PM45 °FFog.3 mph100%29.95 "Hg1 mi
4:20 PM45 °FFog.3 mph100%29.95 "Hg1 mi
3:50 PM45 °FFog.3 mph100%29.95 "Hg1 mi
3:20 PM45 °FFog.3 mph100%29.95 "Hg1 mi
2:50 PM45 °FFog.5 mph100%29.95 "Hg1 mi
2:20 PM45 °FDrizzle. Fog.5 mph100%29.95 "Hg1 mi
1:50 PM46 °FDrizzle. Fog.5 mph93%29.95 "Hg1 mi
1:20 PM46 °FFog.2 mph100%29.95 "Hg1 mi
12:50 PM46 °FFog.3 mph93%29.95 "Hg1 mi
12:20 PM46 °FFog.3 mph93%29.95 "Hg1 mi
11:50 AM46 °FFog.2 mph93%29.98 "Hg1 mi
11:20 AM46 °FLight rain. Fog.3 mph93%29.98 "Hg1 mi
10:50 AM46 °FFog.3 mph93%29.98 "Hg2 mi
10:20 AM46 °FFog.5 mph93%29.98 "Hg2 mi
9:50 AM46 °FFog.3 mph93%29.98 "Hg2 mi
9:20 AM45 °FLight rain. Fog.5 mph100%29.98 "Hg1 mi
8:50 AM45 °FRain. Fog.3 mph100%29.98 "Hg1 mi
8:20 AM46 °FFog.2 mph93%29.98 "Hg2 mi
7:50 AM46 °FFog.2 mph93%29.98 "Hg2 mi
7:20 AM46 °FFog.2 mph93%29.98 "Hg3 mi
6:50 AM45 °FFog.2 mph100%29.98 "Hg3 mi
6:20 AM45 °FFog.2 mph100%29.98 "Hg2 mi
5:50 AM45 °FFog.5 mph100%29.98 "Hg1 mi
5:20 AM45 °FFog.5 mph100%29.98 "Hg1 mi
4:50 AM45 °FFog.2 mph100%29.98 "Hg1 mi
4:20 AM45 °FFog.No wind100%30.01 "Hg1 mi
3:50 AM46 °FFog.1 mph93%30.01 "Hg1 mi
3:20 AM45 °FFog.No wind100%30.01 "Hg1 mi
2:50 AM45 °FDrizzle. Fog.3 mph100%30.01 "Hg1 mi
2:20 AM45 °FDrizzle. Fog.2 mph100%30.01 "Hg1 mi
1:50 AM45 °FDrizzle. Fog.3 mph100%30.04 "Hg1 mi
1:20 AM45 °FFog.5 mph100%30.04 "Hg1 mi
12:50 AM45 °FFog.2 mph100%30.04 "Hg1 mi
12:20 AM45 °FFog.2 mph100%30.04 "Hg1 mi
11:50 PM
Nov 26
45 °FFog.1 mph100%30.04 "Hg1 mi
11:20 PM46 °FFog.2 mph93%30.04 "Hg2 mi
10:50 PM46 °FFog.1 mph93%30.04 "Hg2 mi
10:20 PM46 °FFog.1 mph93%30.04 "Hg2 mi
Weather by CustomWeather, © 2014

See weather overviewHow to use our weather pages